This is the latest recevied weather packets stored in our database for station/object N4MGC. If no packets are shown the sender has not sent any weather packets the latest 10 day(s).
| Time | Temp. | Humidity | Pressure | Rain* | Wind** | Luminosity | Snow |
|---|---|---|---|---|---|---|---|
| 1777669861 | 18.33° C | 62% | 1012.7 hPa | 0 mm | - | 133 W/m² | - |
| 1777669556 | 18.33° C | 62% | 1012.9 hPa | 0 mm | - | 140 W/m² | - |
| 1777669254 | 18.33° C | 63% | 1012.9 hPa | 0 mm | - | 157 W/m² | - |
| 1777668950 | 18.33° C | 61% | 1013 hPa | 0 mm | - | 161 W/m² | - |
| 1777668648 | 18.33° C | 62% | 1013.2 hPa | 0 mm | - | 156 W/m² | - |
| 1777668344 | 18.89° C | 63% | 1013.2 hPa | 0 mm | - | 162 W/m² | - |
| 1777668040 | 18.89° C | 61% | 1013.3 hPa | 0 mm | - | 189 W/m² | - |
| 1777667737 | 18.89° C | 61% | 1013.5 hPa | 0 mm | - | 211 W/m² | - |
| 1777667435 | 18.33° C | 60% | 1013.3 hPa | 0 mm | - | 209 W/m² | - |
| 1777667131 | 18.89° C | 60% | 1013.5 hPa | 0 mm | - | 181 W/m² | - |
| 1777666828 | 18.89° C | 61% | 1013.9 hPa | 0 mm | - | 187 W/m² | - |
| 1777666525 | 18.89° C | 59% | 1014 hPa | 0 mm | - | 239 W/m² | - |
| 1777666221 | 18.89° C | 57% | 1014.1 hPa | 0 mm | - | 255 W/m² | - |
| 1777665919 | 18.89° C | 59% | 1013.9 hPa | 0 mm | - | 238 W/m² | - |
| 1777665616 | 18.89° C | 57% | 1014.5 hPa | 0 mm | - | 257 W/m² | - |
| 1777665313 | 18.89° C | 56% | 1014.7 hPa | 0 mm | - | 239 W/m² | - |
| 1777665009 | 19.44° C | 54% | 1014.7 hPa | 0 mm | - | 256 W/m² | - |
| 1777664704 | 19.44° C | 56% | 1014.8 hPa | 0 mm | - | 332 W/m² | - |
| 1777664400 | 18.89° C | 57% | 1015 hPa | 0 mm | - | 321 W/m² | - |
| 1777664098 | 18.89° C | 56% | 1015.2 hPa | 0 mm | - | 309 W/m² | - |
| 1777663796 | 18.89° C | 56% | 1015.2 hPa | 0 mm | - | 243 W/m² | - |
| 1777663493 | 18.89° C | 57% | 1015.5 hPa | 0 mm | - | 225 W/m² | - |
| 1777663190 | 18.89° C | 56% | 1015.4 hPa | 0 mm | - | 203 W/m² | - |
| 1777662888 | 18.89° C | 58% | 1015.5 hPa | 0 mm | - | 190 W/m² | - |
| 1777662584 | 18.89° C | 58% | 1015.6 hPa | 0 mm | - | 188 W/m² | - |
* Rain latest hour (hover to see other rain measurements)
** Current wind speed in m/s (hover to see current wind gust speed)